Location: Ferques
(50.8300°N, 1.7599°E)
Time: 22:15:17
(UTC+00:00)

Cosmos 1346 Rocket - Pass Details

Date: 19 May 2025
Orbit: 485 x 499 km, 81.2° (Epoch: 18 June)

Event Time Altitude Azimuth Distance (km) Brightness Sun altitude
Rises 21:05:49 0° 344° (NNW) 2,588 7.7 -10.6°
Reaches altitude 10° 21:07:58 10° 340° (NNW) 1,698 6.6 -10.8°
Maximum altitude 21:11:36 55° 262° (W) 599 3.2 -11.2°
Enters shadow 21:15:08 10° 185° (S) 1,646 4.8 -11.5°
